Weather Roundup
Issued by NWS

Home | Current Version | Previous Version | Text Only | Print | Product List | Glossary On
Versions: 1 2 3 4 5 6 7 8 9 10 11 12 13 14 15 16 17 18 19 20 21 22 23 24 25 26 27 28 29 30 31 32 33 34 35 36 37 38 39 40 41 42 43 44 45 46 47 48 49 50
000
NZUS93 KARX 211410
HRRWXR

CURRENT HOURLY OBSERVATIONS ACROSS
MUCH OF THE UPPER MISSISSIPPI VALLEY
NATIONAL WEATHER SERVICE LA CROSSE WI
900 AM CDT SAT OCT 21 2017


...SOUTHEAST MINNESOTA...


CITY           SKY/WX    TMP DP  RH WIND       PRES   REMARKS
ROCHESTER      CLOUDY    58  56  93 S17G24    29.79F
ROCHESTER/MAYO CLOUDY    58  57  97 SE17G29   29.78S
WINONA         CLOUDY    61  54  77 S6        29.83R
AUSTIN         CLOUDY    59  55  88 S13G21    29.76S
ALBERT LEA     NOT AVBL
DODGE CENTER   LGT RAIN  57  55  94 S17G28    29.77S
PRESTON        CLOUDY    59  54  82 S14G25    29.83R
OWATONNA       RAIN      59  57  94 S12       29.75R
FARIBAULT      RAIN      59  57  94 SE16G25   29.73R
$$

...ELSEWHERE IN MINNESOTA...


CITY           SKY/WX    TMP DP  RH WIND       PRES   REMARKS
MINNEAPOLIS    LGT RAIN  61  59  93 S17       29.69S
INTNL FALLS    PTSUNNY   63  53  70 S13G21    29.55S
DULUTH         CLOUDY    61  52  72 S17G23    29.69R
RED WING       RAIN      61  55  82 S16G28    29.75R
REDWOOD FALLS  CLOUDY    65  58  78 S25G32    29.57R
MANKATO        LGT RAIN  61  59  94 SE17G29   29.66F
WORTHINGTON    CLOUDY    62  60  93 S13G23    29.61R
FAIRMONT       CLOUDY    61  59  93 S23       29.65S
$$

...SOUTHWEST WISCONSIN...


CITY           SKY/WX    TMP DP  RH WIND       PRES   REMARKS
LA CROSSE      LGT RAIN  64  55  72 S15       29.86R
PRAIRIE DU CHI CLOUDY    65  50  60 S8        29.89R
BOSCOBEL       CLOUDY    65  52  62 S7        29.91R
LONE ROCK      PTSUNNY   64  53  67 S14       29.93R
PLATTEVILLE    SUNNY     64  53  67 S16G22    29.94S
FORT MC COY    PTSUNNY   65  53  65 S18G29    29.87F
CAMP DOUGLAS   PTSUNNY   64  52  63 S15       29.89R
MAUSTON-NEW LI SUNNY     64  52  67 S13G18    29.91R
VIROQUA        CLOUDY    62  53  72 S14G21    29.90R
WIS DELLS      CLOUDY    61  50  67 S12       29.92S
$$

...ELSEWHERE IN WISCONSIN...


CITY           SKY/WX    TMP DP  RH WIND       PRES   REMARKS
MILWAUKEE      CLOUDY    63  49  60 S8        30.03S
MADISON        PTSUNNY   60  50  69 S14       29.95S
GREEN BAY      PTSUNNY   62  51  67 S9        29.97R
EAU CLAIRE     CLOUDY    59  55  87 S10       29.82R
BLACK RVR FLS  PTSUNNY   64  50  59 SW7       29.86S
MEDFORD        CLOUDY    58  49  74 SE10      29.87S
WAUSAU         CLOUDY    59  49  69 S9        29.89R
WIS RAPIDS     MOSUNNY   63  51  65 S13       29.91R
MARSHFIELD     MOSUNNY   60  49  66 S13       29.88R
RICE LAKE      LGT RAIN  57  54  89 SE12      29.79S
$$

...NORTHEAST IOWA...


CITY           SKY/WX    TMP DP  RH WIND       PRES   REMARKS
WATERLOO       CLOUDY    61  55  81 S15       29.83R
DUBUQUE        SUNNY     63  52  67 S24       29.93R
DECORAH        CLOUDY    61  54  77 S12G22    29.85R
MASON CITY     CLOUDY    60  57  89 S16       29.78F
CHARLES CITY   CLOUDY    61  57  88 S15G21    29.82S
OELWEIN        CLOUDY    63  55  77 S15G23    29.87R
$$

...ELSEWHERE IN IOWA...


CITY           SKY/WX    TMP DP  RH WIND       PRES   REMARKS
DES MOINES     CLOUDY    66  58  75 S18G24    29.79R
IOWA CITY      SUNNY     64  53  67 S12       29.93R
FORT DODGE     CLOUDY    62  59  90 SE13      29.72F
MARSHALLTOWN   CLOUDY    64  57  78 S17G23    29.81R
CEDAR RAPIDS   SUNNY     62  53  72 S15       29.89R
$$

...NORTHERN ILLINOIS...


CITY           SKY/WX    TMP DP  RH WIND       PRES   REMARKS
CHICAGO-OHARE  CLOUDY    62  49  62 S16G24    30.07R
CHICAGO-MIDWAY PTSUNNY   63  50  62 S15G22    30.08R
MOLINE         MOSUNNY   65  52  62 S14G22    29.95S
ROCKFORD       PTSUNNY   60  50  69 S13       30.03R
PEORIA         MOSUNNY   61  52  72 S13       30.04R
$$

NOTE: "FAIR" INDICATES FEW OR NO CLOUDS BELOW 12,000 FEET WITH NO
SIGNIFICANT WEATHER AND/OR OBSTRUCTIONS TO VISIBILITY. WIND
SPEEDS ARE IN MILES-PER-HOUR.




USA.gov is the U.S. government's official web portal to all federal, state and local government web resources and services.